[keps] orb09029.2l.amsat
Ray Hoad
r.hoad at att.net
Thu Jan 29 18:39:45 PST 2009
SB KEPS @ AMSAT $ORB09029.N
2Line Orbital Elements 09029.AMSAT
HR AMSAT ORBITAL ELEMENTS FOR AMATEUR SATELLITES IN NASA FORMAT
FROM WA5QGD FORT WORTH,TX January 29, 2009
Send Subscribe/unsubscribe to KEPS at
http://www.amsat.org/mailman/listinfo/keps
BID: ORB09029.N
DECODE 2-LINE ELSETS WITH THE FOLLOWING KEY:
1 AAAAAU 00 0 0 BBBBB.BBBBBBBB .CCCCCCCC 00000-0 00000-0 0 DDDZ
2 AAAAA EEE.EEEE FFF.FFFF GGGGGGG HHH.HHHH III.IIII JJ.JJJJJJJJKKKKKZ
KEY: A-CATALOGNUM B-EPOCHTIME C-DECAY D-ELSETNUM E-INCLINATION F-RAAN
G-ECCENTRICITY H-ARGPERIGEE I-MNANOM J-MNMOTION K-ORBITNUM Z-CHECKSUM
TO ALL RADIO AMATEURS BT
AO-07
1 07530U 74089B 09028.66698268 -.00000027 00000-0 10000-3 0 03902
2 07530 101.4421 058.3935 0011828 181.4389 178.6645 12.53575148565236
AO-10
1 14129U 83058B 09027.43491243 -.00000255 00000-0 10000-3 0 6140
2 14129 026.0122 174.2966 5967617 193.2634 139.0146 02.05870410192728
UO-11
1 14781U 84021B 09028.77791147 -.00000004 00000-0 67336-5 0 08745
2 14781 098.1278 071.8364 0010079 069.3974 290.8272 14.79691545337219
RS-15
1 23439U 94085A 09028.73401519 -.00000039 00000-0 10000-3 0 01883
2 23439 064.8129 130.3227 0145971 078.6985 283.0296 11.27553419580394
FO-29
1 24278U 96046B 09028.82457376 -.00000008 00000-0 29246-4 0 9591
2 24278 098.5761 281.4366 0350749 351.5285 008.0028 13.52942156614904
SO-33
1 25509U 98061B 09028.68085471 .00000332 00000-0 52067-4 0 03809
2 25509 031.4327 121.3354 0354856 198.7914 159.9310 14.28240494535876
AO-40
1 26609U 00072B 09027.90100829 -.00000062 00000-0 10000-3 0 1848
2 26609 008.5899 035.8159 7945181 169.8633 231.5825 01.25585610 37869
VO-52
1 28650U 05017B 09028.85510808 -.00000125 00000-0 -93109-5 0 01425
2 28650 097.7617 094.9233 0028193 123.3697 237.0210 14.81546585202011
PO-63
1 29712U 07001D 09029.80321589 .00000426 00000-0 62463-4 0 1938
2 29712 097.8487 089.4100 0014464 009.8951 350.2543 14.80425699110999
AO-16
1 20439U 90005D 09029.69894872 -.00000020 00000-0 78185-5 0 5224
2 20439 098.2603 004.5340 0010262 219.3828 140.6613 14.31814530993336
LO-19
1 20442U 90005G 09029.70880098 -.00000113 00000-0 -26885-4 0 4463
2 20442 098.2258 012.3274 0011338 216.0150 144.0259 14.32051187993499
AO-27
1 22825U 93061C 09028.90315288 .00000003 00000-0 17809-4 0 01650
2 22825 098.4193 346.8473 0007701 319.1662 040.8951 14.29257366800014
IO-26
1 22826U 93061D 09028.63783637 -.00000023 00000-0 73131-5 0 08840
2 22826 098.4101 347.4001 0008377 316.8621 043.1903 14.29507841800072
GO-32
1 25397U 98043D 09028.79547805 -.00000068 00000-0 -12165-4 0 8088
2 25397 098.3402 058.5131 0000773 345.8471 014.2666 14.23154070548308
NO-44
1 26931U 01043C 09029.61810331 -.00000269 00000-0 -72819-4 0 858
2 26931 067.0507 061.3322 0005624 260.7606 099.2865 14.29544691382770
SO-50
1 27607U 02058C 09028.65600967 -.00000058 00000-0 13237-4 0 8000
2 27607 064.5583 088.8724 0080483 235.4045 123.9485 14.71411078328142
CO-55
1 27844U 03031E 09029.52488861 .00000045 00000-0 41095-4 0 4991
2 27844 098.7149 040.6356 0009750 179.4744 180.6437 14.20619949289571
CO-57
1 27848U 03031J 09028.56747997 .00000025 00000-0 31912-4 0 4452
2 27848 098.7164 038.7574 0009383 187.1427 172.9639 14.20424430289407
AO-51
1 28375U 04025K 09029.61138548 .00000001 00000-0 12784-4 0 3049
2 28375 098.0566 047.2627 0083177 185.3656 174.6651 14.40631578241005
CO-56
1 28941U 06005C 09029.84042704 .00027494 28591-5 14925-3 0 7712
2 28941 098.1244 180.1122 0123260 290.3178 068.4949 15.70186104165446
CP3
1 31128U 07012M 09028.81564733 -.00000047 00000-0 00000 0 0 5426
2 31128 098.0095 088.3550 0103110 357.6160 002.4525 14.52013201 94674
CP4
1 31132U 07012Q 09029.66336729 .00000108 00000-0 34290-4 0 5225
2 31132 098.0161 092.4657 0085337 345.6394 014.2369 14.55179542 94887
CO-65
1 32785U 08021C 09029.32664762 .00000016 00000-0 89239-5 0 2774
2 32785 097.9660 094.3237 0015803 119.7896 240.4891 14.81442631 40882
NOAA-10
1 16969U 86073A 09028.66204388 .00000013 00000-0 23335-4 0 04798
2 16969 098.7058 055.9756 0011537 242.7042 117.2945 14.27378939163603
NOAA-11
1 19531U 88089A 09028.82551119 -.00000175 00000-0 -67799-4 0 04939
2 19531 098.7882 120.9273 0011638 141.7663 218.4329 14.14886451049817
NOAA-12
1 21263U 91032A 09028.92672973 .00000019 00000-0 26781-4 0 00071
2 21263 098.7725 036.9187 0012144 186.5515 173.5508 14.25564646920554
MET-3/5
1 21655U 91056A 09028.97379620 .00000051 00000-0 10000-3 0 06641
2 21655 082.5521 304.8567 0013109 163.4466 196.7087 13.17017699839306
MET-2/21
1 22782U 93055A 09028.82992841 .00000011 00000-0 -30762-5 0 03658
2 22782 082.5495 292.5651 0023045 021.1826 339.0301 13.83634432778334
OKEAN-4
1 23317U 94066A 09028.73950316 .00000216 00000-0 23631-4 0 8137
2 23317 082.5399 104.6272 0023939 102.9593 257.4302 14.82670834771709
NOAA-14
1 23455U 94089A 09028.74837164 .00000172 00000-0 11463-3 0 04946
2 23455 098.9231 106.8530 0008904 222.3787 137.6677 14.13757881726229
NOAA-15
1 25338U 98030A 09028.86213207 .00000132 00000-0 74983-4 0 07943
2 25338 098.5746 021.2002 0011609 102.5796 257.6671 14.24743855556931
RESURS
1 25394U 98043A 09029.61547765 -.00000001 00000-0 17216-4 0 1308
2 25394 098.3589 068.8981 0000675 279.3274 080.7829 14.24179822548673
FENGYUN1
1 25730U 99025A 09028.92352178 -.00000216 00000-0 -10158-3 0 07029
2 25730 098.7431 003.3329 0021866 251.4089 108.4706 14.07916935500728
OKEAN-0
1 25860U 99039A 09028.49340367 .00000034 00000-0 12510-4 0 05880
2 25860 097.7713 015.3376 0000579 046.5904 313.5349 14.73556115512577
NOAA-16
1 26536U 00055A 09028.81865043 .00000161 00000-0 11235-3 0 02699
2 26536 099.1731 029.1345 0010026 315.7244 044.3102 14.12510226430626
NOAA-17
1 27453U 02032A 09028.74116055 -.00000013 00000-0 12647-4 0 02820
2 27453 098.5053 092.4953 0011950 166.3844 193.7643 14.24036269342901
NOAA-18
1 28654U 05018A 09028.80208039 .00000056 00000-0 55616-4 0 07668
2 28654 098.8948 333.2259 0015026 039.1925 321.0313 14.11229514190297
HUBBLE
1 20580U 90037B 09028.97063548 .00000270 00000-0 80112-5 0 03298
2 20580 028.4706 290.5356 0003688 256.7207 103.2973 15.00450356828921
PO-34
1 25520U 98064B 09029.53785378 .00000323 00000-0 60989-5 0 1747
2 25520 028.4602 103.2752 0005842 228.8534 131.1558 15.17289502567573
ISS
1 25544U 98067A 09029.86526398 .00010756 00000-0 89721-4 0 1685
2 25544 051.6437 295.1098 0007772 326.4280 151.2455 15.70670522584195
CO-58
1 28895U 05043F 09028.71123364 .00000042 00000-0 18339-4 0 2199
2 28895 098.0807 283.0965 0018882 066.9374 293.3849 14.59736544173389
FALCON
1 30776U 07006E 09029.81568922 .00000237 00000-0 20268-4 0 4929
2 30776 035.4330 218.8801 0000571 275.8146 084.2505 15.03156647104262
MAST
1 31126U 07012K 09028.63185913 .00000010 00000-0 12905-4 0 05165
2 31126 098.0090 089.6949 0094812 353.6056 006.3924 14.53474363094768
CAPE1
1 31130U 07012P 09029.63488202 .00000131 00000-0 41106-4 0 5156
2 31130 098.0115 089.1483 0103079 355.0362 004.9808 14.52029713 94580
COMPASS
1 32787U 08021E 09029.78647547 .00000067 00000-0 15294-4 0 2661
2 32787 097.9625 094.6702 0016893 120.2833 240.0055 14.81539307 40956
AAUSAT2
1 32788U 08021F 09029.83317857 .00000210 00000-0 33417-4 0 2674
2 32788 097.9619 094.7536 0016521 120.9675 239.3137 14.81657858 40960
DO-64
1 32789U 08021G 09028.77088360 .00000263 00000-0 40270-4 0 02810
2 32789 097.9664 093.7831 0016490 122.7165 237.5637 14.81600376040808
CO-66
1 32791U 08021J 09028.59811337 .00000031 00000-0 10764-4 0 02684
2 32791 097.9642 093.5171 0016959 121.9060 238.3814 14.81379363040745
RS-30
1 32953U 08025A 09028.86210718 .00000010 00000-0 00000 0 0 2183
2 32953 082.5042 343.2496 0019903 119.7486 240.5578 12.42999639 31081
/EX
More information about the Keps
mailing list